| time (UTC) | temp C | wind direction | speed KPH | gust KPH | rain 1hr cm | rain 24hr cm | rain mn cm | humidity % | barometer mb |
| 20260510214535 | 18 | 311 | 9.7 | 22.5 | 0.00 | 0.00 | 0.00 | 28 | 1018.8 |
| 20260510213033 | 18 | 335 | 14.5 | 25.7 | 0.00 | 0.00 | 0.00 | 29 | 1018.6 |
| 20260510211533 | 18 | 332 | 12.9 | 25.7 | 0.00 | 0.00 | 0.00 | 29 | 1018.6 |
| 20260510210015 | 18 | 319 | 6.4 | 22.5 | 0.00 | 0.00 | 0.00 | 30 | 1018.5 |
| 20260510204517 | 18 | 301 | 8.0 | 20.9 | 0.00 | 0.00 | 0.00 | 30 | 1018.5 |
| 20260510203057 | 18 | 323 | 14.5 | 33.8 | 0.00 | 0.00 | 0.00 | 30 | 1018.5 |
| 20260510201622 | 18 | 297 | 11.3 | 22.5 | 0.00 | 0.00 | 0.00 | 30 | 1018.6 |
| 20260510200039 | 18 | 307 | 9.7 | 22.5 | 0.00 | 0.00 | 0.00 | 32 | 1018.6 |
| 20260510194538 | 18 | 332 | 6.4 | 27.4 | 0.00 | 0.00 | 0.00 | 30 | 1018.5 |
| 20260510193020 | 18 | 321 | 8.0 | 25.7 | 0.00 | 0.00 | 0.00 | 29 | 1018.4 |
| 20260510191521 | 18 | 319 | 6.4 | 25.7 | 0.00 | 0.00 | 0.00 | 29 | 1018.4 |
| 20260510190110 | 18 | 307 | 6.4 | 24.1 | 0.00 | 0.00 | 0.00 | 30 | 1018.5 |
| 20260510184558 | 17 | 303 | 8.0 | 24.1 | 0.00 | 0.00 | 0.00 | 31 | 1018.5 |
| 20260510183039 | 17 | 319 | 8.0 | 27.4 | 0.00 | 0.00 | 0.00 | 29 | 1018.6 |
| 20260510181538 | 18 | 309 | 9.7 | 27.4 | 0.00 | 0.00 | 0.00 | 29 | 1018.7 |
| 20260510180020 | 17 | 291 | 6.4 | 25.7 | 0.00 | 0.00 | 0.00 | 31 | 1018.7 |
| 20260510174518 | 17 | 318 | 4.8 | 20.9 | 0.00 | 0.00 | 0.00 | 31 | 1018.8 |
| 20260510173102 | 17 | 324 | 8.0 | 19.3 | 0.00 | 0.00 | 0.00 | 32 | 1018.7 |
| 20260510171557 | 17 | 300 | 11.3 | 22.5 | 0.00 | 0.00 | 0.00 | 31 | 1018.6 |
| 20260510170037 | 17 | 286 | 4.8 | 19.3 | 0.00 | 0.00 | 0.00 | 31 | 1018.8 |
| 20260510164535 | 16 | 321 | 14.5 | 25.7 | 0.00 | 0.00 | 0.00 | 32 | 1018.9 |
| 20260510163020 | 16 | 263 | 8.0 | 25.7 | 0.00 | 0.00 | 0.00 | 34 | 1018.9 |
| 20260510161518 | 16 | 319 | 11.3 | 27.4 | 0.00 | 0.00 | 0.00 | 34 | 1018.8 |
| 20260510160016 | 16 | 328 | 14.5 | 27.4 | 0.00 | 0.00 | 0.00 | 33 | 1018.7 |
| 20260510154516 | 16 | 341 | 8.0 | 17.7 | 0.00 | 0.00 | 0.00 | 34 | 1018.7 |
| 20260510153017 | 16 | 359 | 16.1 | 35.4 | 0.00 | 0.00 | 0.00 | 33 | 1018.6 |
| 20260510151514 | 16 | 324 | 9.7 | 17.7 | 0.00 | 0.00 | 0.00 | 32 | 1018.5 |
| 20260510150014 | 15 | 258 | 8.0 | 17.7 | 0.00 | 0.00 | 0.00 | 35 | 1018.7 |
| 20260510144518 | 15 | 316 | 4.8 | 20.9 | 0.00 | 0.00 | 0.00 | 37 | 1018.9 |
| 20260510143055 | 14 | 270 | 11.3 | 24.1 | 0.00 | 0.00 | 0.00 | 37 | 1018.9 |
| 20260510141553 | 13 | 271 | 12.9 | 24.1 | 0.00 | 0.00 | 0.00 | 38 | 1018.9 |
| 20260510140035 | 12 | 283 | 19.3 | 32.2 | 0.00 | 0.00 | 0.00 | 40 | 1019.0 |
| 20260510134536 | 12 | 252 | 9.7 | 20.9 | 0.00 | 0.00 | 0.00 | 43 | 1018.9 |
| 20260510133019 | 12 | 217 | 9.7 | 22.5 | 0.00 | 0.00 | 0.00 | 45 | 1018.9 |
| 20260510131514 | 11 | 259 | 14.5 | 19.3 | 0.00 | 0.00 | 0.00 | 43 | 1018.8 |
| 20260510130057 | 10 | 262 | 14.5 | 17.7 | 0.00 | 0.00 | 0.00 | 49 | 1018.8 |
| 20260510124604 | 8 | 228 | 6.4 | 9.7 | 0.00 | 0.00 | 0.00 | 56 | 1018.8 |
| 20260510123036 | -17 | 0.0 | 0.0 | 0.00 | 0.00 | 0.00 | 1018.7 | ||
| 20260510121532 | -17 | 0.0 | 0.0 | 0.00 | 0.00 | 0.00 | 1018.6 | ||
| 20260510120013 | -17 | 0.0 | 0.0 | 0.00 | 0.00 | 0.00 | 1018.5 | ||
| 20260510114506 | -17 | 0.0 | 0.0 | 0.00 | 0.00 | 0.00 | 1018.4 | ||
| 20260510113044 | -17 | 0.0 | 0.0 | 0.00 | 0.00 | 0.00 | 1018.5 | ||
| 20260510111602 | -17 | 0.0 | 0.0 | 0.00 | 0.00 | 0.00 | 1018.5 | ||
| 20260510110031 | 2 | 230 | 1.6 | 4.8 | 0.00 | 0.00 | 0.00 | 66 | 1018.5 |
| 20260510104520 | 3 | 262 | 3.2 | 6.4 | 0.00 | 0.00 | 0.00 | 65 | 1018.5 |
| 20260510103105 | 2 | 226 | 0.0 | 3.2 | 0.00 | 0.00 | 0.00 | 65 | 1018.2 |
| 20260510101557 | 2 | 231 | 0.0 | 1.6 | 0.00 | 0.00 | 0.00 | 66 | 1018.1 |
| 20260510100043 | 2 | 232 | 0.0 | 4.8 | 0.00 | 0.00 | 0.00 | 64 | 1017.9 |
| 20260510094542 | 2 | 234 | 1.6 | 4.8 | 0.00 | 0.00 | 0.00 | 64 | 1017.8 |
| 20260510093057 | 2 | 227 | 1.6 | 4.8 | 0.00 | 0.00 | 0.00 | 62 | 1017.6 |
| 20260510091537 | 3 | 235 | 1.6 | 1.6 | 0.00 | 0.00 | 0.00 | 62 | 1017.4 |
| 20260510090046 | 3 | 236 | 0.0 | 3.2 | 0.00 | 0.00 | 0.00 | 61 | 1017.1 |
| 20260510084533 | 3 | 233 | 0.0 | 3.2 | 0.00 | 0.00 | 0.00 | 62 | 1017.0 |
| 20260510083027 | 3 | 246 | 1.6 | 4.8 | 0.00 | 0.00 | 0.00 | 61 | 1016.7 |
| 20260510081526 | 3 | 227 | 0.0 | 1.6 | 0.00 | 0.00 | 0.00 | 60 | 1016.7 |
| 20260510080008 | 3 | 250 | 0.0 | 3.2 | 0.00 | 0.00 | 0.00 | 58 | 1016.3 |
| 20260510074507 | 4 | 250 | 1.6 | 4.8 | 0.00 | 0.00 | 0.00 | 57 | 1016.2 |
| 20260510073005 | 4 | 229 | 1.6 | 6.4 | 0.00 | 0.00 | 0.00 | 56 | 1016.3 |
| 20260510071504 | 6 | 260 | 1.6 | 4.8 | 0.00 | 0.00 | 0.00 | 53 | 1016.2 |
| 20260510070002 | 6 | 271 | 1.6 | 3.2 | 0.00 | 0.00 | 0.00 | 52 | 1016.3 |
| 20260510064608 | 6 | 260 | 1.6 | 4.8 | 0.00 | 0.00 | 0.00 | 52 | 1016.3 |
| 20260510063056 | 6 | 293 | 0.0 | 1.6 | 0.00 | 0.00 | 0.00 | 50 | 1016.4 |
| 20260510061556 | 7 | 325 | 0.0 | 4.8 | 0.00 | 0.00 | 0.00 | 49 | 1016.4 |
| 20260510060040 | 7 | 319 | 1.6 | 6.4 | 0.00 | 0.00 | 0.00 | 47 | 1016.2 |
| 20260510054536 | 7 | 321 | 1.6 | 4.8 | 0.00 | 0.00 | 0.00 | 48 | 1016.0 |
| 20260510053033 | 7 | 321 | 1.6 | 6.4 | 0.00 | 0.00 | 0.00 | 47 | 1015.8 |
| 20260510051531 | 7 | 328 | 3.2 | 8.0 | 0.00 | 0.00 | 0.00 | 47 | 1015.5 |
| 20260510050030 | 7 | 326 | 3.2 | 6.4 | 0.00 | 0.00 | 0.00 | 46 | 1015.4 |
| 20260510044534 | 7 | 323 | 1.6 | 3.2 | 0.00 | 0.00 | 0.00 | 45 | 1015.3 |
| 20260510043026 | 8 | 326 | 0.0 | 4.8 | 0.00 | 0.00 | 0.00 | 44 | 1015.3 |
| 20260510041524 | 8 | 314 | 3.2 | 6.4 | 0.00 | 0.00 | 0.00 | 42 | 1015.0 |
| 20260510040005 | 8 | 323 | 3.2 | 6.4 | 0.00 | 0.00 | 0.00 | 40 | 1014.8 |
| 20260510034501 | 9 | 321 | 3.2 | 6.4 | 0.00 | 0.00 | 0.00 | 39 | 1014.7 |
| 20260510033101 | 9 | 322 | 1.6 | 6.4 | 0.00 | 0.00 | 0.00 | 39 | 1014.6 |
| 20260510031540 | 9 | 327 | 3.2 | 8.0 | 0.00 | 0.00 | 0.00 | 37 | 1014.5 |
| 20260510030040 | 10 | 320 | 4.8 | 11.3 | 0.00 | 0.00 | 0.00 | 37 | 1014.2 |
| 20260510024519 | 10 | 320 | 4.8 | 12.9 | 0.00 | 0.00 | 0.00 | 36 | 1013.9 |
| 20260510023013 | 10 | 314 | 6.4 | 11.3 | 0.00 | 0.00 | 0.00 | 35 | 1013.6 |
| 20260510021552 | 11 | 338 | 4.8 | 11.3 | 0.00 | 0.00 | 0.00 | 34 | 1013.2 |
| 20260510020047 | 11 | 322 | 6.4 | 12.9 | 0.00 | 0.00 | 0.00 | 33 | 1012.9 |
| 20260510014527 | 12 | 347 | 8.0 | 12.9 | 0.00 | 0.00 | 0.00 | 31 | 1012.5 |
| 20260510013024 | 12 | 309 | 6.4 | 14.5 | 0.00 | 0.00 | 0.00 | 31 | 1012.2 |
| 20260510011501 | 13 | 337 | 8.0 | 17.7 | 0.00 | 0.00 | 0.00 | 30 | 1011.9 |
| 20260510010137 | 13 | 343 | 9.7 | 17.7 | 0.00 | 0.00 | 0.00 | 29 | 1011.7 |
| 20260510004537 | 14 | 326 | 12.9 | 25.7 | 0.00 | 0.00 | 0.00 | 28 | 1011.3 |
| 20260510003033 | 15 | 314 | 8.0 | 24.1 | 0.00 | 0.00 | 0.00 | 27 | 1011.1 |
| 20260510001512 | 16 | 338 | 14.5 | 27.4 | 0.00 | 0.00 | 0.00 | 26 | 1010.8 |
| 20260510000011 | 16 | 319 | 12.9 | 24.1 | 0.00 | 0.00 | 0.00 | 25 | 1010.6 |
| 20260509234613 | 16 | 319 | 17.7 | 27.4 | 0.00 | 0.00 | 0.00 | 25 | 1010.6 |
| 20260509233050 | 16 | 334 | 9.7 | 29.0 | 0.00 | 0.00 | 0.00 | 25 | 1010.3 |
| 20260509231533 | 17 | 312 | 9.7 | 22.5 | 0.00 | 0.00 | 0.00 | 25 | 1010.2 |
| 20260509230030 | 17 | 333 | 9.7 | 25.7 | 0.00 | 0.00 | 0.00 | 26 | 1010.0 |
| 20260509224511 | 17 | 313 | 11.3 | 30.6 | 0.00 | 0.00 | 0.00 | 25 | 1009.7 |
| 20260509223014 | 17 | 4 | 6.4 | 24.1 | 0.00 | 0.00 | 0.00 | 26 | 1009.6 |
| 20260509221550 | 17 | 316 | 9.7 | 24.1 | 0.00 | 0.00 | 0.00 | 24 | 1009.3 |
| 20260509220047 | 17 | 330 | 17.7 | 32.2 | 0.00 | 0.00 | 0.00 | 25 | 1009.1 |